Wind_Speed
13 13 14 13 13 13 14 12 12 14 16 17 18 19 19 19 20 20 18 17 18 16 16 15 15 13 7 4 9 6 4 12 20 8 6 4 3 5 4 5 7 4 7 8 7 9 9
13 14 14 14 13 13 13 12 14 15 16 18 18 19 18 19 20 20 19 17 16 16 15 15 15 11 4 15 13 25 20 25 20 13 12 5 7 5 6 6 4 8 16 15 8 8 7
12 12 13 14 14 13 13 13 14 16 18 19 18 20 19 21 21 20 19 17 17 16 15 14 13 10 10 21 11 15 17 23 24 22 7 18 7 4 3 5 4 4 7 10 5 4 5
13 13 13 13 15 15 14 16 16 18 17 18 18 21 21 22 21 20 19 17 16 16 15 13 12 8 9 9 15 26 31 29 28 26 23 27 13 5 5 5 7 4 2 5 4 6 6
12 13 12 12 14 16 16 17 16 18 18 18 18 20 21 21 21 20 19 17 16 15 13 11 8 4 12 7 14 34 35 21 22 21 16 19 5 5 3 4 4 2 6 5 6 4 5
12 13 13 14 15 16 15 17 16 16 16 18 19 19 22 22 21 21 20 16 14 12 8 7 6 4 9 7 19 16 25 26 13 8 6 4 3 4 2 4 13 7 5 6 6 5 3
12 13 14 14 15 16 16 16 16 15 15 17 19 20 22 22 19 20 18 11 1 3 7 9 8 7 10 16 11 14 11 17 8 5 9 5 4 14 16 8 4 3 4 7 3 6 4
11 12 14 15 15 15 16 16 16 16 18 18 18 19 21 21 20 19 15 5 4 6 7 19 19 15 26 18 9 12 5 10 10 17 10 4 16 19 7 8 8 9 12 16 8 10 6
12 12 14 14 14 15 15 15 17 18 19 20 21 20 20 21 22 17 15 17 21 16 4 6 8 8 10 11 13 20 4 8 10 12 15 17 9 13 13 14 12 14 17 14 12 7 7
12 12 14 14 14 15 16 17 16 17 18 19 20 21 21 20 14 10 9 16 23 15 5 6 7 8 8 9 9 16 25 5 9 22 19 15 17 13 17 21 17 18 15 8 10 5 10
11 13 14 15 15 15 16 18 17 17 18 19 20 21 21 15 16 8 10 7 11 9 5 7 12 8 9 12 6 14 24 4 16 14 12 20 20 24 18 26 19 14 8 10 10 9 1
13 13 14 15 15 16 18 18 17 18 19 20 21 21 21 18 9 18 16 17 8 7 10 5 8 11 8 11 16 4 10 14 3 14 15 25 10 15 27 22 18 16 6 8 6 3 4
14 13 13 14 15 19 18 17 19 20 21 22 23 24 20 20 11 17 7 6 6 5 4 5 5 12 19 14 15 24 6 14 15 11 18 23 24 23 15 23 18 11 7 7 6 6 16
14 13 14 14 17 18 18 19 19 21 23 24 27 27 28 29 27 23 10 5 8 6 11 5 5 10 16 11 6 21 27 16 8 13 11 18 14 23 15 25 21 28 19 8 10 7 16
14 16 16 14 16 18 18 19 20 20 23 24 28 24 18 27 20 19 4 7 7 6 10 12 8 4 16 14 7 13 22 25 14 17 13 14 15 5 21 24 20 21 15 22 11 2 1
15 16 16 14 15 18 19 19 19 20 24 22 19 15 12 10 11 14 6 8 7 8 6 14 10 6 9 10 11 12 14 16 28 20 18 8 7 20 17 22 20 20 20 10 6 16 19
15 16 14 16 17 18 19 18 18 21 20 21 11 4 8 3 18 6 11 10 9 6 7 2 16 12 8 2 14 13 6 10 11 21 18 14 12 5 4 19 25 20 20 15 11 10 13
15 16 17 17 17 18 19 18 16 20 17 9 4 3 3 7 6 3 12 7 7 10 9 11 5 9 18 24 9 4 9 13 2 8 19 24 7 21 24 11 6 14 22 22 14 19 10
17 15 17 16 17 18 18 17 16 18 13 9 2 3 5 3 3 6 6 11 7 5 4 4 11 7 9 4 5 10 15 13 12 6 8 10 9 13 9 16 25 15 18 12 11 14 23
16 16 17 16 17 16 17 16 15 16 11 6 2 4 3 2 1 4 5 8 19 11 17 12 13 10 13 14 11 7 6 3 5 7 8 15 7 9 20 20 4 9 21 20 17 12 18
15 16 15 16 15 17 18 17 17 9 8 5 1 3 3 3 3 5 4 6 10 13 11 8 5 20 16 6 9 10 14 9 4 5 6 12 7 8 12 12 15 14 15 17 18 19 15
15 15 15 13 17 17 18 14 13 9 6 3 2 2 3 3 8 6 3 2 7 8 7 11 19 16 7 17 17 16 6 3 6 1 4 3 3 6 6 9 11 12 19 18 20 23 18
15 15 14 16 16 20 13 11 9 6 4 4 4 5 4 4 5 6 5 11 9 5 9 17 13 13 12 24 19 14 11 11 4 3 3 4 4 4 11 12 9 10 16 15 16 20 18
15 15 14 16 16 16 12 10 8 6 7 9 7 5 3 8 8 5 13 19 18 18 19 16 13 18 28 9 8 11 11 13 11 12 7 9 7 4 10 1 13 7 8 11 17 22 21
15 16 14 14 15 16 11 10 10 9 9 10 12 4 2 7 9 16 19 16 19 17 22 22 23 23 12 8 5 6 5 3 15 17 12 9 9 6 7 12 12 13 6 7 8 15 17
15 15 15 15 14 17 13 11 11 11 12 13 14 13 4 6 9 11 17 13 15 15 19 23 21 15 7 6 5 8 8 6 6 5 18 19 17 13 4 6 15 14 15 19 20 18 19
17 16 16 16 17 17 16 15 14 13 13 12 13 16 7 6 11 15 3 11 6 4 5 7 4 7 11 9 9 8 10 7 12 14 9 14 13 19 16 13 8 14 13 7 10 8 25
18 17 17 17 17 19 18 18 17 16 15 14 15 18 13 5 13 19 18 11 11 10 13 4 5 5 4 8 6 5 6 6 5 4 12 11 8 9 9 11 19 10 15 17 16 25 24
19 19 18 18 19 19 20 20 20 19 17 16 15 16 17 6 9 28 32 39 33 27 11 3 3 2 2 3 4 2 3 4 7 5 8 7 9 10 11 7 7 12 17 15 18 22 20
Wind_Direction
4 358 353 351 351 346 349 347 340 334 333 331 330 324 318 320 320 317 313 303 303 303 303 307 311 316 327 232 242 217 290 322 316 267 224 233 235 160 217 263 325 232 270 277 259 272 229
348 343 347 348 342 341 343 340 335 328 327 326 325 323 315 317 316 313 309 304 295 295 296 299 309 309 237 251 253 256 284 286 295 302 295 214 240 223 260 244 216 281 283 280 278 277 235
345 347 338 339 341 334 335 332 332 331 325 327 323 321 312 314 314 314 308 303 294 291 290 293 306 313 247 243 256 263 279 288 282 288 298 280 262 181 298 293 235 269 312 310 240 220 254
338 338 336 337 337 334 331 327 325 327 326 327 324 324 314 314 313 311 306 298 295 287 285 286 301 302 257 258 262 272 273 277 275 271 272 265 279 216 189 262 354 351 325 274 303 219 246
340 338 335 335 333 329 325 326 320 325 327 323 324 322 321 315 311 308 307 297 294 286 281 283 298 222 271 263 233 257 260 257 269 285 281 265 255 213 257 131 6 226 241 249 306 269 256
336 335 332 328 332 329 322 325 316 323 327 324 322 322 319 318 312 310 307 291 290 283 274 257 246 310 243 246 233 248 257 227 235 283 286 212 176 205 128 140 216 215 217 248 225 269 250
330 331 331 328 327 329 322 328 328 324 322 322 321 318 319 318 313 307 304 307 279 274 213 213 195 235 292 224 268 236 223 203 215 217 221 196 163 220 211 193 172 280 240 236 260 261 239
329 328 328 325 324 324 326 320 323 327 326 324 320 319 318 318 313 301 298 228 179 22 285 230 248 242 263 296 286 291 232 181 178 216 214 254 223 225 197 210 212 231 251 261 287 267 200
330 326 324 320 321 321 322 322 317 312 316 317 317 316 314 318 309 296 265 239 250 335 287 260 212 228 233 231 251 258 246 203 215 201 208 212 227 208 192 222 222 228 230 238 247 288 245
325 325 325 322 321 322 325 320 315 315 311 311 313 312 313 319 303 317 243 254 241 254 268 253 213 243 190 211 265 239 245 241 229 212 209 232 233 235 201 220 214 231 227 228 244 224 252
326 324 323 323 318 318 322 319 316 316 312 315 315 314 312 313 295 294 278 315 228 169 245 224 217 189 176 174 153 235 222 228 229 212 188 223 215 217 224 221 209 238 217 212 226 237 232
329 321 325 324 323 323 320 318 318 316 318 315 314 311 310 313 280 266 281 289 218 191 226 253 168 171 149 212 214 295 179 199 240 235 241 228 235 208 224 232 218 231 257 241 233 158 240
326 321 323 324 326 324 319 318 318 317 315 312 311 308 296 284 254 273 288 198 195 214 261 223 190 169 195 198 214 214 211 183 199 202 216 232 225 241 236 228 230 224 185 225 236 214 233
326 324 318 320 325 325 322 325 317 316 318 313 312 308 292 271 270 267 260 237 201 186 214 250 217 193 202 187 216 212 229 234 235 212 214 221 228 219 221 223 212 222 214 202 202 213 234
316 316 321 317 323 324 323 322 319 319 315 315 315 307 280 270 250 222 203 235 200 201 211 230 285 252 216 211 194 186 218 230 224 214 217 199 230 199 215 225 214 228 222 229 252 217 358
328 316 314 318 321 327 324 318 320 319 323 323 313 295 270 301 208 169 221 210 220 221 303 207 250 237 212 210 215 207 195 225 234 225 227 256 281 224 231 216 231 228 231 232 209 227 240
326 335 332 328 325 323 324 321 324 323 333 333 305 297 287 305 176 185 217 237 237 262 299 285 238 262 267 223 216 222 210 285 244 227 234 249 248 243 254 219 217 223 234 229 221 219 225
324 324 319 321 321 322 321 321 321 327 338 347 290 296 286 354 200 197 220 213 233 264 261 261 281 249 249 261 266 299 254 229 271 204 230 230 228 242 243 258 250 256 232 227 224 224 226
331 323 322 323 323 322 319 320 319 330 341 326 275 258 306 297 201 227 246 251 251 242 218 248 247 233 266 283 267 244 262 244 232 201 239 238 227 244 243 246 264 246 252 244 260 234 229
322 321 318 326 324 323 321 324 318 325 330 318 291 307 302 60 102 299 248 239 241 231 252 267 270 296 289 281 267 286 300 326 231 232 206 192 250 239 237 231 239 240 236 242 237 247 241
323 322 319 320 322 321 318 317 313 322 320 304 197 268 294 295 311 318 289 310 263 238 235 273 283 231 237 271 278 250 259 264 237 188 234 196 213 196 261 289 302 277 282 287 258 238 244
320 320 318 318 320 321 320 318 313 299 288 236 248 288 294 271 290 278 251 269 294 279 241 230 230 245 277 239 242 272 294 233 221 280 201 218 208 174 224 228 245 266 286 296 286 281 259
316 318 314 315 319 324 326 322 317 299 230 241 230 268 280 279 289 281 249 268 280 279 254 251 262 276 253 238 241 257 255 266 243 322 274 226 193 205 263 254 252 247 250 254 269 265 277
316 315 310 312 316 324 321 320 313 294 253 245 256 290 249 273 279 258 286 280 273 271 271 268 255 241 252 318 293 286 273 258 252 252 193 262 243 190 270 35 264 253 183 242 259 278 274
310 312 309 306 310 322 315 319 318 306 298 283 266 241 271 278 278 283 271 267 270 263 264 263 262 253 274 285 258 249 244 287 251 243 230 222 259 241 232 251 278 264 271 232 226 275 281
309 309 311 299 296 318 309 309 314 313 304 295 282 266 239 280 260 287 299 269 267 267 278 264 262 260 214 233 229 240 241 219 235 246 212 218 225 237 209 223 242 264 238 242 259 269 265
305 304 309 301 294 298 306 308 306 305 306 300 281 270 253 262 260 258 282 298 290 264 268 297 273 222 202 226 232 225 228 214 234 228 212 204 205 224 228 243 250 247 248 262 246 248 260
302 300 303 306 294 291 296 299 298 302 302 304 281 273 250 261 267 264 272 277 289 251 252 265 288 226 188 213 217 207 220 202 200 247 227 199 180 207 223 240 251 223 254 212 222 235 259
299 298 297 298 302 290 284 292 296 296 298 299 286 285 275 247 272 278 277 268 258 255 268 228 262 171 276 236 207 209 198 181 186 221 192 224 200 206 189 206 215 236 232 222 225 239 250
Height
847 845 844 843 841 840 838 837 835 834 831 830 826 824 823 821 819 817 816 814 811 811 810 807 806 805 804 804 788 778 777 777 781 781 779 781 781 782 792 784 781 780 772 765 763 763 759
846 845 843 841 840 838 837 835 834 832 830 827 824 822 821 819 817 815 813 812 811 811 809 807 805 804 805 798 784 780 776 775 780 781 779 779 778 776 780 781 785 773 770 767 762 761 758
845 843 842 840 838 836 835 833 832 830 827 824 822 820 819 816 813 811 810 808 807 806 806 805 804 802 795 777 778 775 776 776 776 779 779 774 774 776 776 777 768 769 777 769 761 756 758
843 841 840 838 836 834 832 831 829 827 824 822 820 818 815 813 810 808 806 805 803 803 803 803 802 802 785 777 777 771 773 772 772 773 775 771 772 771 774 768 770 778 779 789 762 754 753
841 839 837 836 834 832 830 828 826 824 822 820 818 816 813 810 808 806 803 801 800 800 801 801 800 799 781 771 769 765 771 773 771 769 767 767 767 771 771 785 793 787 800 788 777 754 755
839 837 836 834 832 830 828 825 823 822 820 818 815 813 811 808 805 802 800 799 798 799 799 799 798 800 776 764 763 760 762 766 769 768 766 764 769 779 784 792 792 793 790 783 784 764 758
837 836 834 832 830 828 826 824 821 819 818 816 813 810 807 805 801 800 800 799 801 800 796 787 780 770 758 759 760 754 758 762 766 767 773 764 780 780 772 775 772 776 778 781 771 759 761
835 833 831 830 828 826 823 821 819 816 814 812 810 808 805 802 799 798 798 798 793 797 789 779 775 772 765 765 766 755 755 761 762 765 765 772 770 758 766 767 773 778 782 777 770 761 765
832 831 829 827 825 823 821 819 816 814 812 809 807 804 801 799 796 794 794 794 793 793 789 769 766 765 762 764 758 754 754 751 751 761 762 763 749 753 761 765 770 771 774 772 773 762 757
830 828 827 824 822 820 818 816 813 811 809 806 804 802 799 797 795 790 788 788 790 797 789 766 755 749 750 753 755 743 746 753 750 749 753 757 748 751 754 759 760 770 752 759 763 772 779
827 826 824 822 820 818 815 813 810 808 805 803 800 798 796 795 793 790 785 785 789 794 783 745 739 733 736 745 738 735 739 744 748 744 751 743 744 747 753 742 747 751 748 755 758 764 765
825 823 822 820 817 815 813 810 807 805 802 799 797 794 792 790 788 783 782 783 787 784 774 735 726 732 738 737 733 733 730 737 737 748 742 737 732 737 736 732 737 737 748 751 754 767 785
823 821 819 817 815 812 809 807 804 801 798 795 792 789 787 785 781 780 781 779 778 766 742 730 724 724 726 728 732 734 731 735 740 751 747 735 733 728 727 737 735 739 753 775 778 780 763
820 818 816 814 812 809 806 803 801 797 794 790 786 781 776 773 773 776 782 771 764 749 739 718 715 718 726 723 726 728 729 736 730 732 737 743 745 728 715 722 729 733 740 765 774 767 749
818 816 813 811 809 806 803 801 798 794 790 785 779 772 765 758 763 771 777 758 768 738 726 724 720 720 723 720 722 727 730 727 724 722 734 731 730 706 710 710 719 723 736 720 745 737 756
815 813 811 809 806 804 801 797 793 790 786 782 776 769 757 752 757 766 765 751 746 727 722 726 729 720 720 718 722 724 725 713 716 716 713 716 728 705 698 708 710 714 705 739 737 753 757
813 810 808 806 804 801 798 794 792 789 785 780 774 768 751 748 755 758 748 739 731 728 730 736 723 725 714 714 715 716 722 714 712 712 717 717 723 714 705 707 705 710 716 714 717 727 738
809 807 805 803 800 798 795 792 789 785 781 777 775 773 753 752 750 749 743 741 732 730 732 732 725 722 721 713 716 716 709 707 701 705 716 710 716 718 713 696 692 699 699 703 717 722 716
806 804 802 799 797 794 791 788 786 784 782 780 774 768 754 750 743 744 740 735 735 729 729 728 724 719 721 719 722 711 707 699 701 711 712 703 710 721 716 710 693 701 696 698 697 695 702
803 800 798 795 793 791 787 785 783 781 780 779 775 771 759 753 756 748 742 735 729 727 730 730 724 724 724 721 717 716 706 698 699 698 700 702 710 708 703 694 693 699 692 688 695 705 697
799 797 795 792 790 787 784 781 779 778 778 780 777 770 763 766 756 751 751 739 730 730 724 725 724 718 722 724 718 715 704 702 699 698 699 702 709 720 715 711 709 705 703 701 690 686 696
796 794 791 788 785 783 780 778 776 775 775 776 776 772 765 760 754 754 747 738 733 730 726 720 721 712 718 720 718 711 704 702 700 696 698 700 710 711 712 717 719 722 713 711 702 689 678
792 790 787 784 782 779 777 774 772 772 772 771 770 769 766 756 752 751 745 734 726 727 719 718 716 715 712 701 700 701 705 700 703 704 704 700 703 706 706 696 696 706 704 700 695 687 685
788 785 784 781 779 775 773 771 770 769 769 769 767 767 764 754 752 752 740 733 730 726 721 714 712 709 682 703 702 699 702 700 699 697 704 704 703 708 702 700 705 677 675 679 684 679 674
783 781 779 777 775 772 770 769 768 766 765 764 764 764 760 752 747 741 733 726 718 716 712 709 701 695 703 704 705 713 710 704 688 686 693 698 702 705 707 693 681 673 677 673 673 665 663
779 777 775 773 771 769 767 766 764 763 761 760 758 758 757 750 740 732 727 723 717 711 702 694 690 690 696 701 703 695 689 686 686 679 672 683 689 699 713 704 686 664 662 664 667 674 654
774 772 770 768 766 764 763 761 760 758 757 756 753 753 751 745 733 731 724 720 715 706 699 693 684 683 684 690 686 681 679 665 673 668 671 675 676 682 678 684 670 655 655 661 679 675 633
768 766 765 763 761 759 757 756 755 753 752 751 746 746 746 737 725 722 720 716 711 704 697 687 687 678 680 677 676 672 672 667 666 658 653 660 681 678 677 676 672 651 645 660 648 639 627
762 760 759 757 755 753 752 750 749 748 746 745 740 738 737 733 720 714 710 705 702 697 696 688 681 677 677 672 667 674 673 664 661 655 647 658 652 648 649 650 635 627 627 625 624 627 624